����������;��������(kVARh)
2019-09-02 00:00;12,35
2019-09-02 00:15;14,35
2019-09-02 00:30;13,65
2019-09-02 00:45;9
2019-09-02 01:00;8,1
2019-09-02 01:15;6,8
2019-09-02 01:30;7,45
2019-09-02 01:45;7,95
2019-09-02 02:00;7,25
2019-09-02 02:15;9,4
2019-09-02 02:30;10,3
2019-09-02 02:45;10,05
2019-09-02 03:00;15,15
2019-09-02 03:15;15,8
2019-09-02 03:30;18,3
2019-09-02 03:45;19,5
2019-09-02 04:00;19,5
2019-09-02 04:15;19,6
2019-09-02 04:30;19,1
2019-09-02 04:45;19,3
2019-09-02 05:00;19,4
2019-09-02 05:15;20,05
2019-09-02 05:30;19,95
2019-09-02 05:45;19,45
2019-09-02 06:00;16,05
2019-09-02 06:15;15,2
2019-09-02 06:30;14,1
2019-09-02 06:45;14,05
2019-09-02 07:00;15,9
2019-09-02 07:15;13,65
2019-09-02 07:30;16,65
2019-09-02 07:45;29,15
2019-09-02 08:00;35,2
2019-09-02 08:15;31,75
2019-09-02 08:30;29,7
2019-09-02 08:45;44,8
2019-09-02 09:00;48,4
2019-09-02 09:15;47,15
2019-09-02 09:30;40,5
2019-09-02 09:45;44,75
2019-09-02 10:00;45,35
2019-09-02 10:15;51,75
2019-09-02 10:30;42,75
2019-09-02 10:45;50,65
2019-09-02 11:00;55,05
2019-09-02 11:15;46,75
2019-09-02 11:30;53,25
2019-09-02 11:45;51,45
2019-09-02 12:00;55,5
2019-09-02 12:15;51,35
2019-09-02 12:30;49,7
2019-09-02 12:45;60,25
2019-09-02 13:00;52,9
2019-09-02 13:15;57
2019-09-02 13:30;62,25
2019-09-02 13:45;55,6
2019-09-02 14:00;56,8
2019-09-02 14:15;56,15
2019-09-02 14:30;59,4
2019-09-02 14:45;62,9
2019-09-02 15:00;54,15
2019-09-02 15:15;57,35
2019-09-02 15:30;60,2
2019-09-02 15:45;46,9
2019-09-02 16:00;51,9
2019-09-02 16:15;50,1
2019-09-02 16:30;50,4
2019-09-02 16:45;44,05
2019-09-02 17:00;43,4
2019-09-02 17:15;49,7
2019-09-02 17:30;40,45
2019-09-02 17:45;44,3
2019-09-02 18:00;48,2
2019-09-02 18:15;48,7
2019-09-02 18:30;44,3
2019-09-02 18:45;34,6
2019-09-02 19:00;42,3
2019-09-02 19:15;43,7
2019-09-02 19:30;40,85
2019-09-02 19:45;37,65
2019-09-02 20:00;35,9
2019-09-02 20:15;31,25
2019-09-02 20:30;30,7
2019-09-02 20:45;30,45
2019-09-02 21:00;30,35
2019-09-02 21:15;31,65
2019-09-02 21:30;29,7
2019-09-02 21:45;28,1
2019-09-02 22:00;23,1
2019-09-02 22:15;10,25
2019-09-02 22:30;10,3
2019-09-02 22:45;12,4
2019-09-02 23:00;15,5
2019-09-02 23:15;12,9
2019-09-02 23:30;13,15
2019-09-02 23:45;15,95
2019-09-03 00:00;13,3
2019-09-03 00:15;14,5
2019-09-03 00:30;16,2
2019-09-03 00:45;17,65
2019-09-03 01:00;18,6
2019-09-03 01:15;18,65
2019-09-03 01:30;13,65
2019-09-03 01:45;13,4
2019-09-03 02:00;13,5
2019-09-03 02:15;15
2019-09-03 02:30;14,2
2019-09-03 02:45;14,9
2019-09-03 03:00;15,2
2019-09-03 03:15;15
2019-09-03 03:30;16,55
2019-09-03 03:45;16,35
2019-09-03 04:00;15,15
2019-09-03 04:15;13,95
2019-09-03 04:30;14,85
2019-09-03 04:45;14,9
2019-09-03 05:00;15,95
2019-09-03 05:15;15,8
2019-09-03 05:30;16,35
2019-09-03 05:45;14,6
2019-09-03 06:00;13,95
2019-09-03 06:15;12,3
2019-09-03 06:30;12,3
2019-09-03 06:45;11,8
2019-09-03 07:00;13,3
2019-09-03 07:15;11,8
2019-09-03 07:30;11,8
2019-09-03 07:45;30,8
2019-09-03 08:00;28,85
2019-09-03 08:15;20,85
2019-09-03 08:30;30,7
2019-09-03 08:45;36,45
2019-09-03 09:00;41,8
2019-09-03 09:15;44,25
2019-09-03 09:30;55,8
2019-09-03 09:45;49,1
2019-09-03 10:00;57,3
2019-09-03 10:15;62,2
2019-09-03 10:30;54,9
2019-09-03 10:45;60
2019-09-03 11:00;56,2
2019-09-03 11:15;61,65
2019-09-03 11:30;59,75
2019-09-03 11:45;64,6
2019-09-03 12:00;65,7
2019-09-03 12:15;63,55
2019-09-03 12:30;56,45
2019-09-03 12:45;59,05
2019-09-03 13:00;61,5
2019-09-03 13:15;66,15
2019-09-03 13:30;57,75
2019-09-03 13:45;63,35
2019-09-03 14:00;64,9
2019-09-03 14:15;64,25
2019-09-03 14:30;55,5
2019-09-03 14:45;62
2019-09-03 15:00;57,25
2019-09-03 15:15;62,6
2019-09-03 15:30;56,7
2019-09-03 15:45;55,75
2019-09-03 16:00;59,55
2019-09-03 16:15;59,3
2019-09-03 16:30;58
2019-09-03 16:45;57,4
2019-09-03 17:00;57,2
2019-09-03 17:15;54,95
2019-09-03 17:30;54,15
2019-09-03 17:45;50,7
2019-09-03 18:00;48,55
2019-09-03 18:15;47,05
2019-09-03 18:30;46,7
2019-09-03 18:45;47,65
2019-09-03 19:00;48,15
2019-09-03 19:15;44
2019-09-03 19:30;43,7
2019-09-03 19:45;44
2019-09-03 20:00;41,2
2019-09-03 20:15;38,3
2019-09-03 20:30;37,45
2019-09-03 20:45;37,25
2019-09-03 21:00;38,25
2019-09-03 21:15;39,75
2019-09-03 21:30;42,3
2019-09-03 21:45;40,2
2019-09-03 22:00;37,6
2019-09-03 22:15;29,15
2019-09-03 22:30;29,45
2019-09-03 22:45;32,25
2019-09-03 23:00;28,4
2019-09-03 23:15;22,25
2019-09-03 23:30;26,3
2019-09-03 23:45;23,8
2019-09-04 00:00;21,85
2019-09-04 00:15;21,3
2019-09-04 00:30;19,25
2019-09-04 00:45;17,3
2019-09-04 01:00;14,4
2019-09-04 01:15;14,6
2019-09-04 01:30;15,2
2019-09-04 01:45;15,95
2019-09-04 02:00;15,95
2019-09-04 02:15;15,3
2019-09-04 02:30;12,15
2019-09-04 02:45;12,55
2019-09-04 03:00;12,85
2019-09-04 03:15;13,95
2019-09-04 03:30;13,85
2019-09-04 03:45;15,15
2019-09-04 04:00;14,95
2019-09-04 04:15;15,35
2019-09-04 04:30;14,6
2019-09-04 04:45;15,45
2019-09-04 05:00;13,35
2019-09-04 05:15;15,3
2019-09-04 05:30;14,4
2019-09-04 05:45;13,65
2019-09-04 06:00;11,35
2019-09-04 06:15;9,35
2019-09-04 06:30;8,7
2019-09-04 06:45;7,75
2019-09-04 07:00;9,05
2019-09-04 07:15;10
2019-09-04 07:30;9,45
2019-09-04 07:45;27,3
2019-09-04 08:00;33,1
2019-09-04 08:15;25,6
2019-09-04 08:30;25
2019-09-04 08:45;22,1
2019-09-04 09:00;30,3
2019-09-04 09:15;38,1
2019-09-04 09:30;44,6
2019-09-04 09:45;50,65
2019-09-04 10:00;48,75
2019-09-04 10:15;59,65
2019-09-04 10:30;56,35
2019-09-04 10:45;57,9
2019-09-04 11:00;59,55
2019-09-04 11:15;55,9
2019-09-04 11:30;59,65
2019-09-04 11:45;57,6
2019-09-04 12:00;58,8
2019-09-04 12:15;58,35
2019-09-04 12:30;62,35
2019-09-04 12:45;62,6
2019-09-04 13:00;64,35
2019-09-04 13:15;66,45
2019-09-04 13:30;67,45
2019-09-04 13:45;62,45
2019-09-04 14:00;60,7
2019-09-04 14:15;60,9
2019-09-04 14:30;62,95
2019-09-04 14:45;63,6
2019-09-04 15:00;63,35
2019-09-04 15:15;61,9
2019-09-04 15:30;60,3
2019-09-04 15:45;58
2019-09-04 16:00;57,45
2019-09-04 16:15;55,45
2019-09-04 16:30;53,9
2019-09-04 16:45;53,9
2019-09-04 17:00;54,05
2019-09-04 17:15;54,95
2019-09-04 17:30;54,05
2019-09-04 17:45;48,95
2019-09-04 18:00;47,2
2019-09-04 18:15;47,3
2019-09-04 18:30;45,3
2019-09-04 18:45;47,15
2019-09-04 19:00;44,5
2019-09-04 19:15;38,7
2019-09-04 19:30;38,6
2019-09-04 19:45;37,35
2019-09-04 20:00;30,4
2019-09-04 20:15;24
2019-09-04 20:30;25,55
2019-09-04 20:45;32
2019-09-04 21:00;31,9
2019-09-04 21:15;32,5
2019-09-04 21:30;34,1
2019-09-04 21:45;31,15
2019-09-04 22:00;29,5
2019-09-04 22:15;22,65
2019-09-04 22:30;21,65
2019-09-04 22:45;23,45
2019-09-04 23:00;27,1
2019-09-04 23:15;28,15
2019-09-04 23:30;30,5
2019-09-04 23:45;29,8
2019-09-05 00:00;25,65
2019-09-05 00:15;21,15
2019-09-05 00:30;19,7
2019-09-05 00:45;20,85
2019-09-05 01:00;17,05
2019-09-05 01:15;17,45
2019-09-05 01:30;15,35
2019-09-05 01:45;16,35
2019-09-05 02:00;15,25
2019-09-05 02:15;12,75
2019-09-05 02:30;13,95
2019-09-05 02:45;12,05
2019-09-05 03:00;13,15
2019-09-05 03:15;12,5
2019-09-05 03:30;13,75
2019-09-05 03:45;13,8
2019-09-05 04:00;13,4
2019-09-05 04:15;13,75
2019-09-05 04:30;12,9
2019-09-05 04:45;13,3
2019-09-05 05:00;12,25
2019-09-05 05:15;13,1
2019-09-05 05:30;12,45
2019-09-05 05:45;13,4
2019-09-05 06:00;11,5
2019-09-05 06:15;10,75
2019-09-05 06:30;9,95
2019-09-05 06:45;18,1
2019-09-05 07:00;20,15
2019-09-05 07:15;20,3
2019-09-05 07:30;20,1
2019-09-05 07:45;39,7
2019-09-05 08:00;39,35
2019-09-05 08:15;33,3
2019-09-05 08:30;40,05
2019-09-05 08:45;36,85
2019-09-05 09:00;41,6
2019-09-05 09:15;50,2
2019-09-05 09:30;49,6
2019-09-05 09:45;54,3
2019-09-05 10:00;47,55
2019-09-05 10:15;52,75
2019-09-05 10:30;57,25
2019-09-05 10:45;55,6
2019-09-05 11:00;61,55
2019-09-05 11:15;66,15
2019-09-05 11:30;60,55
2019-09-05 11:45;65,1
2019-09-05 12:00;67,55
2019-09-05 12:15;63,65
2019-09-05 12:30;69,9
2019-09-05 12:45;62,75
2019-09-05 13:00;63,25
2019-09-05 13:15;61,65
2019-09-05 13:30;55,8
2019-09-05 13:45;64,4
2019-09-05 14:00;59,3
2019-09-05 14:15;59
2019-09-05 14:30;62,2
2019-09-05 14:45;56,4
2019-09-05 15:00;60,05
2019-09-05 15:15;60,9
2019-09-05 15:30;55,2
2019-09-05 15:45;57,15
2019-09-05 16:00;57,55
2019-09-05 16:15;50,85
2019-09-05 16:30;55,95
2019-09-05 16:45;52,7
2019-09-05 17:00;49,5
2019-09-05 17:15;45,1
2019-09-05 17:30;44,2
2019-09-05 17:45;42,6
2019-09-05 18:00;44,1
2019-09-05 18:15;44,8
2019-09-05 18:30;39,8
2019-09-05 18:45;39,7
2019-09-05 19:00;38,25
2019-09-05 19:15;33,6
2019-09-05 19:30;32,4
2019-09-05 19:45;40,5
2019-09-05 20:00;38,95
2019-09-05 20:15;39
2019-09-05 20:30;31,45
2019-09-05 20:45;30,55
2019-09-05 21:00;30,8
2019-09-05 21:15;30,1
2019-09-05 21:30;32,4
2019-09-05 21:45;30,45
2019-09-05 22:00;25,85
2019-09-05 22:15;22,8
2019-09-05 22:30;17,95
2019-09-05 22:45;19,3
2019-09-05 23:00;20,55
2019-09-05 23:15;21,65
2019-09-05 23:30;23,15
2019-09-05 23:45;22,15
2019-09-06 00:00;15,75
2019-09-06 00:15;16,7
2019-09-06 00:30;19
2019-09-06 00:45;18,9
2019-09-06 01:00;19,95
2019-09-06 01:15;19,6
2019-09-06 01:30;17,85
2019-09-06 01:45;19,5
2019-09-06 02:00;19,3
2019-09-06 02:15;21,35
2019-09-06 02:30;20,3
2019-09-06 02:45;19,7
2019-09-06 03:00;21,05
2019-09-06 03:15;20,05
2019-09-06 03:30;22,25
2019-09-06 03:45;21,9
2019-09-06 04:00;23,1
2019-09-06 04:15;22,6
2019-09-06 04:30;23,75
2019-09-06 04:45;23,4
2019-09-06 05:00;23,65
2019-09-06 05:15;23,65
2019-09-06 05:30;22,45
2019-09-06 05:45;22,65
2019-09-06 06:00;21,7
2019-09-06 06:15;20,1
2019-09-06 06:30;19,15
2019-09-06 06:45;18,5
2019-09-06 07:00;19,15
2019-09-06 07:15;25,25
2019-09-06 07:30;28,85
2019-09-06 07:45;46,75
2019-09-06 08:00;43,45
2019-09-06 08:15;35,45
2019-09-06 08:30;46,35
2019-09-06 08:45;42,3
2019-09-06 09:00;43,85
2019-09-06 09:15;48,45
2019-09-06 09:30;49,95
2019-09-06 09:45;46,05
2019-09-06 10:00;46,9
2019-09-06 10:15;50,85
2019-09-06 10:30;57,05
2019-09-06 10:45;50,35
2019-09-06 11:00;53,45
2019-09-06 11:15;55,3
2019-09-06 11:30;58,15
2019-09-06 11:45;59,2
2019-09-06 12:00;59,85
2019-09-06 12:15;62,4
2019-09-06 12:30;56,7
2019-09-06 12:45;58,95
2019-09-06 13:00;57,6
2019-09-06 13:15;59,6
2019-09-06 13:30;56,35
2019-09-06 13:45;55,8
2019-09-06 14:00;61,65
2019-09-06 14:15;63,3
2019-09-06 14:30;63,5
2019-09-06 14:45;63,3
2019-09-06 15:00;62,5
2019-09-06 15:15;61,25
2019-09-06 15:30;58,65
2019-09-06 15:45;57,7
2019-09-06 16:00;57,75
2019-09-06 16:15;56,2
2019-09-06 16:30;55,55
2019-09-06 16:45;57,2
2019-09-06 17:00;55,4
2019-09-06 17:15;53,4
2019-09-06 17:30;51,9
2019-09-06 17:45;51,4
2019-09-06 18:00;51,05
2019-09-06 18:15;47,55
2019-09-06 18:30;43,6
2019-09-06 18:45;44
2019-09-06 19:00;45,9
2019-09-06 19:15;44,4
2019-09-06 19:30;45,75
2019-09-06 19:45;48,55
2019-09-06 20:00;47,7
2019-09-06 20:15;46,1
2019-09-06 20:30;46,7
2019-09-06 20:45;50
2019-09-06 21:00;42,25
2019-09-06 21:15;47,8
2019-09-06 21:30;46,75
2019-09-06 21:45;38,1
2019-09-06 22:00;32,7
2019-09-06 22:15;33,7
2019-09-06 22:30;30,7
2019-09-06 22:45;35,7
2019-09-06 23:00;30,65
2019-09-06 23:15;33,15
2019-09-06 23:30;36,7
2019-09-06 23:45;36
2019-09-07 00:00;33,95
2019-09-07 00:15;33,75
2019-09-07 00:30;35,7
2019-09-07 00:45;28,1
2019-09-07 01:00;24,3
2019-09-07 01:15;26,85
2019-09-07 01:30;17,75
2019-09-07 01:45;14,9
2019-09-07 02:00;19,05
2019-09-07 02:15;21,15
2019-09-07 02:30;16,55
2019-09-07 02:45;16,2
2019-09-07 03:00;19,05
2019-09-07 03:15;19,7
2019-09-07 03:30;15
2019-09-07 03:45;16,45
2019-09-07 04:00;21,25
2019-09-07 04:15;19,7
2019-09-07 04:30;14,75
2019-09-07 04:45;20,5
2019-09-07 05:00;21,65
2019-09-07 05:15;19,45
2019-09-07 05:30;16,05
2019-09-07 05:45;21,6
2019-09-07 06:00;20,65
2019-09-07 06:15;14,15
2019-09-07 06:30;15,1
2019-09-07 06:45;18,6
2019-09-07 07:00;18,15
2019-09-07 07:15;12,65
2019-09-07 07:30;17,3
2019-09-07 07:45;18,2
2019-09-07 08:00;11,85
2019-09-07 08:15;19,3
2019-09-07 08:30;25,95
2019-09-07 08:45;25,8
2019-09-07 09:00;20,7
2019-09-07 09:15;19,45
2019-09-07 09:30;25,95
2019-09-07 09:45;27,6
2019-09-07 10:00;24,7
2019-09-07 10:15;22,95
2019-09-07 10:30;27,5
2019-09-07 10:45;24,05
2019-09-07 11:00;20,95
2019-09-07 11:15;22,7
2019-09-07 11:30;23,55
2019-09-07 11:45;20,2
2019-09-07 12:00;19,3
2019-09-07 12:15;21,7
2019-09-07 12:30;24,6
2019-09-07 12:45;30,1
2019-09-07 13:00;31,8
2019-09-07 13:15;28,1
2019-09-07 13:30;27,7
2019-09-07 13:45;27,25
2019-09-07 14:00;26,1
2019-09-07 14:15;23
2019-09-07 14:30;22,7
2019-09-07 14:45;26,35
2019-09-07 15:00;27,85
2019-09-07 15:15;25,2
2019-09-07 15:30;23,45
2019-09-07 15:45;25,4
2019-09-07 16:00;27,55
2019-09-07 16:15;24,45
2019-09-07 16:30;24,05
2019-09-07 16:45;28,25
2019-09-07 17:00;26,4
2019-09-07 17:15;23,3
2019-09-07 17:30;26,35
2019-09-07 17:45;27,05
2019-09-07 18:00;20,5
2019-09-07 18:15;21,7
2019-09-07 18:30;27,15
2019-09-07 18:45;27,45
2019-09-07 19:00;28
2019-09-07 19:15;27,2
2019-09-07 19:30;25,3
2019-09-07 19:45;22,7
2019-09-07 20:00;21,6
2019-09-07 20:15;14,8
2019-09-07 20:30;20,05
2019-09-07 20:45;21,9
2019-09-07 21:00;16,3
2019-09-07 21:15;22,05
2019-09-07 21:30;25,5
2019-09-07 21:45;17,55
2019-09-07 22:00;22,5
2019-09-07 22:15;26,65
2019-09-07 22:30;31
2019-09-07 22:45;29,1
2019-09-07 23:00;29,5
2019-09-07 23:15;22,65
2019-09-07 23:30;29,3
2019-09-07 23:45;28,6
2019-09-08 00:00;20,85
2019-09-08 00:15;18,95
2019-09-08 00:30;21,6
2019-09-08 00:45;24,6
2019-09-08 01:00;21,25
2019-09-08 01:15;13,45
2019-09-08 01:30;19,15
2019-09-08 01:45;18,95
2019-09-08 02:00;13,1
2019-09-08 02:15;19,25
2019-09-08 02:30;21,1
2019-09-08 02:45;22,4
2019-09-08 03:00;21,5
2019-09-08 03:15;20,75
2019-09-08 03:30;13,6
2019-09-08 03:45;17,25
2019-09-08 04:00;22,7
2019-09-08 04:15;16
2019-09-08 04:30;16,15
2019-09-08 04:45;22,3
2019-09-08 05:00;17,4
2019-09-08 05:15;16,35
2019-09-08 05:30;21,85
2019-09-08 05:45;20,9
2019-09-08 06:00;29,55
2019-09-08 06:15;28,4
2019-09-08 06:30;13,55
2019-09-08 06:45;18,35
2019-09-08 07:00;22,3
2019-09-08 07:15;27,75
2019-09-08 07:30;25,6
2019-09-08 07:45;17,9
2019-09-08 08:00;9,75
2019-09-08 08:15;14,35
2019-09-08 08:30;14,65
2019-09-08 08:45;19,75
2019-09-08 09:00;22,35
2019-09-08 09:15;19,45
2019-09-08 09:30;14,35
2019-09-08 09:45;31,95
2019-09-08 10:00;31,15
2019-09-08 10:15;31,55
2019-09-08 10:30;19,05
2019-09-08 10:45;22,3
2019-09-08 11:00;18,25
2019-09-08 11:15;23,7
2019-09-08 11:30;26,25
2019-09-08 11:45;23,3
2019-09-08 12:00;13,1
2019-09-08 12:15;14,85
2019-09-08 12:30;24,15
2019-09-08 12:45;20,45
2019-09-08 13:00;18,25
2019-09-08 13:15;25,9
2019-09-08 13:30;30,8
2019-09-08 13:45;30,7
2019-09-08 14:00;31,15
2019-09-08 14:15;31,3
2019-09-08 14:30;31,9
2019-09-08 14:45;23,55
2019-09-08 15:00;26,7
2019-09-08 15:15;30,3
2019-09-08 15:30;26,2
2019-09-08 15:45;27,85
2019-09-08 16:00;28,95
2019-09-08 16:15;22,9
2019-09-08 16:30;22,45
2019-09-08 16:45;25,65
2019-09-08 17:00;27,45
2019-09-08 17:15;29,15
2019-09-08 17:30;27
2019-09-08 17:45;26,6
2019-09-08 18:00;24,1
2019-09-08 18:15;23,85
2019-09-08 18:30;20
2019-09-08 18:45;22,85
2019-09-08 19:00;20,75
2019-09-08 19:15;20
2019-09-08 19:30;25,45
2019-09-08 19:45;19,85
2019-09-08 20:00;20,25
2019-09-08 20:15;32,5
2019-09-08 20:30;29,5
2019-09-08 20:45;26,5
2019-09-08 21:00;34,7
2019-09-08 21:15;33,5
2019-09-08 21:30;32
2019-09-08 21:45;35,15
2019-09-08 22:00;24,85
2019-09-08 22:15;28,1
2019-09-08 22:30;31,9
2019-09-08 22:45;19,15
2019-09-08 23:00;12,5
2019-09-08 23:15;17,2
2019-09-08 23:30;14,35
2019-09-08 23:45;14,3

